Weather History for PHNL - May, 2012

Change the Weather History Date:

Wednesday, May 2, 2012

  Actual Average Record
Temperature  
Mean Temperature 78 °F 77 °F  
Max Temperature 84 °F 84 °F 89 °F (1978)
Min Temperature 71 °F 70 °F 60 °F (1989)
Degree Days  
Heating Degree Days 0 0  
Month to date heating degree days 0 0  
Since 1 July heating degree days 0 0  
Cooling Degree Days 13 12  
Month to date cooling degree days 25 24  
Year to date cooling degree days 1201 1131  
Growing Degree Days 26 (Base 50)    
Moisture  
Dew Point 61 °F    
Average Humidity 64    
Maximum Humidity 84    
Minimum Humidity 43    
Precipitation  
Precipitation T in 0.03 in 3.44 in (1965)
Month to date precipitation T 0.05  
Year to date precipitation 7.44 7.00  
Snow  
Snow 0.00 in - - ()
Month to date snowfall 0.0  
Since 1 July snowfall 0.0  
Snow Depth 0.00 in    
Sea Level Pressure  
Sea Level Pressure 30.07 in    
Wind  
Wind Speed 12 mph (NE)    
Max Wind Speed 23 mph    
Max Gust Speed 33 mph    
Visibility 10 miles    
Events Rain    
T = Trace of Precipitation, MM = Missing Value Source: NWS Daily Summary

Daily Weather History Graph

Daily Weather History Graph

Search for Another Location

Airport or City:

Trip Planner

Search our weather history database for the weather conditions in past years. The results will help you decide how hot, cold, wet, or windy it might be!

Date:

Astronomy

May. 02, 2012 Rise Set
Actual Time 5:59 AM HST 6:57 PM HST
Civil Twilight 5:36 AM HST 7:21 PM HST
Nautical Twilight 5:08 AM HST 7:48 PM HST
Astronomical Twilight 4:40 AM HST 8:16 PM HST
Moon 3:45 PM HST (5/2) 3:08 AM HST (5/2)
Length of Visible Light 13h 44m
Length of Day
12h 57m
Waxing Gibbous, 85% of the Moon is Illuminated
May 2
Waxing Gibbous
May 5
Full
May 12
Last Quarter
May 20
New
May 28
First Quarter

Hourly Weather History & Observations

Time (HST) Temp. Heat Index Dew Point Humidity Pressure Visibility Wind Dir Wind Speed Gust Speed Precip Events Conditions
12:53 AM 73.0 °F - 64.0 °F 73% 30.10 in 10.0 mi ENE 10.4 mph - N/A   Partly Cloudy
1:53 AM 72.0 °F - 64.9 °F 78% 30.08 in 10.0 mi NNE 9.2 mph - N/A   Scattered Clouds
2:53 AM 71.1 °F - 66.0 °F 84% 30.08 in 10.0 mi Variable 5.8 mph - 0.00 in Rain Light Rain
3:53 AM 72.0 °F - 64.0 °F 76% 30.07 in 10.0 mi NE 8.1 mph - 0.00 in   Scattered Clouds
4:53 AM 72.0 °F - 64.0 °F 76% 30.06 in 10.0 mi NE 10.4 mph - N/A   Partly Cloudy
5:53 AM 72.0 °F - 64.0 °F 76% 30.07 in 10.0 mi ENE 11.5 mph - N/A   Partly Cloudy
6:53 AM 72.0 °F - 64.9 °F 78% 30.09 in 10.0 mi ENE 6.9 mph - 0.00 in   Scattered Clouds
7:53 AM 73.9 °F - 64.0 °F 71% 30.10 in 10.0 mi ENE 12.7 mph - N/A   Scattered Clouds
8:53 AM 78.1 °F - 61.0 °F 56% 30.10 in 10.0 mi East 12.7 mph - N/A   Scattered Clouds
9:53 AM 79.0 °F - 61.0 °F 54% 30.10 in 10.0 mi ENE 11.5 mph - N/A   Scattered Clouds
10:53 AM 81.0 °F 81.3 °F 59.0 °F 47% 30.08 in 10.0 mi ENE 16.1 mph 25.3 mph N/A   Scattered Clouds
11:53 AM 82.0 °F 82.0 °F 57.9 °F 44% 30.07 in 10.0 mi ENE 17.3 mph 27.6 mph N/A   Scattered Clouds
12:53 PM 81.0 °F 81.1 °F 57.9 °F 45% 30.05 in 10.0 mi ENE 16.1 mph 25.3 mph N/A   Scattered Clouds
1:53 PM 82.0 °F 82.0 °F 57.9 °F 44% 30.04 in 10.0 mi NNE 16.1 mph - N/A   Scattered Clouds
2:53 PM 82.9 °F 82.6 °F 57.9 °F 42% 30.01 in 10.0 mi NE 18.4 mph 25.3 mph N/A   Scattered Clouds
3:53 PM 81.0 °F 81.3 °F 59.0 °F 47% 30.01 in 10.0 mi ENE 17.3 mph 27.6 mph N/A   Scattered Clouds
4:53 PM 79.0 °F - 57.9 °F 48% 30.01 in 10.0 mi ENE 18.4 mph 24.2 mph N/A   Scattered Clouds
5:53 PM 78.1 °F - 57.9 °F 50% 30.03 in 10.0 mi NNE 13.8 mph 19.6 mph N/A   Scattered Clouds
6:53 PM 75.9 °F - 60.1 °F 58% 30.05 in 10.0 mi NE 9.2 mph - N/A   Scattered Clouds
7:53 PM 73.9 °F - 59.0 °F 59% 30.07 in 10.0 mi NE 9.2 mph - N/A   Scattered Clouds
8:53 PM 75.0 °F - 57.9 °F 55% 30.09 in 10.0 mi NE 16.1 mph 21.9 mph N/A   Scattered Clouds
9:53 PM 73.9 °F - 60.1 °F 62% 30.11 in 10.0 mi ENE 18.4 mph 25.3 mph N/A   Scattered Clouds
10:53 PM 73.9 °F - 61.0 °F 64% 30.11 in 10.0 mi NE 15.0 mph 21.9 mph N/A   Scattered Clouds
11:53 PM 73.9 °F - 61.0 °F 64% 30.09 in 10.0 mi ENE 13.8 mph - N/A   Scattered Clouds